Location: The Saddle
(36.8333°N, 80.3417°W)
Time: 07:20:31
(UTC-04:00)

Courier 1B - Pass Details

Date: 22 September 2024
Orbit: 962 x 1208 km, 28.3° (Epoch: 05 October)

Event Time Altitude Azimuth Distance (km) Brightness Sun altitude
Rises 11:56:53 0° 228° (SW) 3,644 10.6 49.0°
Reaches altitude 10° 11:59:53 10° 217° (SW) 2,717 10.2 49.3°
Maximum altitude 12:05:17 27° 161° (SSE) 1,813 10.4 49.8°
Drops below altitude 10° 12:10:53 10° 106° (ESE) 2,838 10.5 50.3°
Sets 12:14:05 0° 95° (E) 3,836 10.9 50.6°
